Location: Unspecified
(0.0000°N, 0.0000°E)
Time: 21:17:14
(UTC+00:00)

CHEOPS - Visible Passes

Search period start: 05 October 2024 00:00
Search period end: 15 October 2024 00:00
Orbit: 683 x 697 km, 98.2° (Epoch: 04 October)

Date Brightness Start Highest point End Pass type
(mag) Time Alt. Az. Time Alt. Az. Time Alt. Az.
05 Oct ? 18:19:51 10° N 18:24:19 47° WNW 18:28:48 10° SSW visible
06 Oct ? 05:03:47 10° ESE 05:06:31 15° ENE 05:09:16 10° NE visible
06 Oct ? 19:00:38 10° NW 19:03:06 14° WNW 19:05:36 10° WSW visible
08 Oct ? 18:39:39 10° NNW 18:43:30 26° WNW 18:47:21 10° SW visible
09 Oct ? 05:21:43 10° SE 05:25:41 27° ENE 05:29:40 10° NNE visible
10 Oct ? 18:19:24 10° N 18:23:51 47° WNW 18:28:20 10° SSW visible
11 Oct ? 05:03:20 10° ESE 05:06:03 15° ENE 05:08:46 10° NE visible
11 Oct ? 19:00:07 10° NW 19:02:38 14° WNW 19:05:09 10° WSW visible
13 Oct ? 18:39:06 10° NNW 18:42:58 26° WNW 18:46:51 10° SW visible
14 Oct ? 05:21:11 10° SE 05:25:09 27° ENE 05:29:07 10° NNE visible
